Tracking 28794 objects as of 19-Apr-2024
HD Live streaming from Space Station
objects crossing your sky now

FR 1

Track FR 1 now!
10-day predictions
FR 1 is classified as:


NORAD ID: 1814
Int'l Code: 1965-101A
Perigee: 669.0 km
Apogee: 675.6 km
Inclination: 75.9 °
Period: 98.0 minutes
Semi major axis: 7043 km
RCS: 0.5793 m2 (medium)
Launch date: December 6, 1965
Source: France (FR)
Launch site: AIR FORCE WESTERN TEST RANGE (AFWTR)
Your satellite tracking list
Your tracking list is empty




NASA's NSSDC Master Catalog

Two Line Element Set (TLE):
1  1814U 65101A   24110.54787827  .00003601  00000-0  62067-3 0  9997
2  1814  75.8656 269.4195 0004707 242.9116 117.1585 14.68725642961225
Source of the keplerian elements: AFSPC